When you browse on this site, cookies collect data to enhance your experience and personalize the content and advertising you see.
Visit our Privacy Policy to learn more. By continuing to use the site, you agree to this use of cookies and data.
  • In Spain
  • List of Countries
  • For 7 days
  • Water Temperature
  • Satellite Maps
  • Weather Map
  • Weather Widgets
  • user-avatar
    Login

    Hourly Weather Neuquén

    Today, 22 March, Friday

    Time Temperature Precipitation Wind Pressure Humidity
    00:00 +18°C° 0 mm 7 mps 733 mmHg 45%
    01:00 +17°C° 0 mm 6 mps 733 mmHg 49%
    02:00 +17°C° 0 mm 6 mps 733 mmHg 50%
    03:00 +16°C° 0 mm 6 mps 733 mmHg 52%
    04:00 +16°C° 0 mm 6 mps 734 mmHg 53%
    05:00 +16°C° 0 mm 6 mps 734 mmHg 52%
    06:00 +17°C° 0 mm 6 mps 734 mmHg 51%
    07:00 +17°C° 0 mm 6 mps 734 mmHg 50%
    08:00 +20°C° 0 mm 5 mps 735 mmHg 44%
    09:00 +21°C° 0 mm 4 mps 735 mmHg 39%
    10:00 +24°C° 0 mm 3 mps 735 mmHg 33%
    11:00 +25°C° 0 mm 4 mps 734 mmHg 30%
    12:00 +26°C° 0 mm 4 mps 734 mmHg 27%
    13:00 +27°C° 0 mm 4 mps 733 mmHg 24%
    14:00 +27°C° 0 mm 4 mps 733 mmHg 23%
    15:00 +28°C° 0 mm 4 mps 732 mmHg 22%
    16:00 +28°C° 0 mm 4 mps 732 mmHg 21%
    17:00 +27°C° 0 mm 3 mps 732 mmHg 22%
    18:00 +26°C° 0 mm 3 mps 731 mmHg 24%
    19:00 +24°C° 0 mm 2 mps 731 mmHg 25%
    20:00 +24°C° 0 mm 2 mps 731 mmHg 26%
    21:00 +23°C° 0 mm 2 mps 732 mmHg 27%
    22:00 +23°C° 0 mm 2 mps 732 mmHg 28%
    23:00 +22°C° 0 mm 4 mps 732 mmHg 32%

    Tomorrow, 23 March, Saturday

    Time Temperature Precipitation Wind Pressure Humidity
    00:00 +21°C° 0 mm 6 mps 732 mmHg 35%
    01:00 +21°C° 0 mm 7 mps 732 mmHg 39%
    02:00 +21°C° 0 mm 7 mps 731 mmHg 41%
    03:00 +21°C° 0 mm 8 mps 731 mmHg 43%
    04:00 +20°C° 0 mm 8 mps 731 mmHg 45%
    05:00 +21°C° 0 mm 9 mps 732 mmHg 45%
    06:00 +21°C° 0 mm 10 mps 732 mmHg 45%
    07:00 +21°C° 0 mm 10 mps 733 mmHg 44%
    08:00 +22°C° 0 mm 11 mps 733 mmHg 40%
    09:00 +24°C° 0 mm 12 mps 733 mmHg 35%
    10:00 +26°C° 0 mm 12 mps 733 mmHg 31%
    11:00 +27°C° 0 mm 12 mps 733 mmHg 27%
    12:00 +28°C° 0 mm 12 mps 733 mmHg 22%
    13:00 +29°C° 0 mm 12 mps 732 mmHg 18%
    14:00 +29°C° 0 mm 11 mps 732 mmHg 17%
    15:00 +29°C° 0 mm 11 mps 733 mmHg 15%
    16:00 +29°C° 0 mm 10 mps 733 mmHg 13%
    17:00 +27°C° 0 mm 9 mps 734 mmHg 14%
    18:00 +24°C° 0 mm 7 mps 734 mmHg 15%
    19:00 +23°C° 0 mm 5 mps 735 mmHg 16%
    20:00 +22°C° 0 mm 5 mps 735 mmHg 18%
    21:00 +21°C° 0 mm 4 mps 736 mmHg 20%
    22:00 +20°C° 0 mm 4 mps 737 mmHg 21%
    23:00 +19°C° 0 mm 3 mps 737 mmHg 25%

    Day after tomorrow, 24 March, Sunday

    Time Temperature Precipitation Wind Pressure Humidity
    00:00 +18°C° 0 mm 3 mps 737 mmHg 28%
    01:00 +18°C° 0 mm 2 mps 737 mmHg 31%
    02:00 +17°C° 0 mm 2 mps 737 mmHg 34%
    03:00 +16°C° 0 mm 1 mps 737 mmHg 37%
    04:00 +15°C° 0 mm 1 mps 737 mmHg 40%
    05:00 +16°C° 0 mm 1 mps 738 mmHg 38%
    06:00 +18°C° 0 mm 1 mps 738 mmHg 35%
    07:00 +19°C° 0 mm 1 mps 738 mmHg 33%
    08:00 +19°C° 0 mm 2 mps 738 mmHg 31%
    09:00 +21°C° 0 mm 2 mps 738 mmHg 30%
    10:00 +22°C° 0 mm 3 mps 738 mmHg 28%
    11:00 +24°C° 0 mm 3 mps 738 mmHg 27%
    12:00 +25°C° 0 mm 3 mps 738 mmHg 25%
    13:00 +25°C° 0 mm 3 mps 737 mmHg 23%
    14:00 +26°C° 0 mm 4 mps 737 mmHg 23%
    15:00 +26°C° 0 mm 4 mps 736 mmHg 23%
    16:00 +26°C° 0 mm 4 mps 736 mmHg 23%
    17:00 +25°C° 0 mm 5 mps 736 mmHg 24%
    18:00 +23°C° 0 mm 5 mps 736 mmHg 25%
    19:00 +22°C° 0 mm 6 mps 736 mmHg 27%
    20:00 +21°C° 0 mm 6 mps 737 mmHg 28%
    21:00 +21°C° 0 mm 6 mps 737 mmHg 28%
    22:00 +20°C° 0 mm 6 mps 737 mmHg 29%
    23:00 +19°C° 0 mm 6 mps 737 mmHg 33%

    25 March, Monday

    Time Temperature Precipitation Wind Pressure Humidity
    00:00 +19°C° 0 mm 5 mps 737 mmHg 38%
    01:00 +17°C° 0 mm 5 mps 737 mmHg 42%
    02:00 +17°C° 0 mm 4 mps 737 mmHg 46%
    03:00 +17°C° 0 mm 4 mps 737 mmHg 50%
    04:00 +15°C° 0 mm 4 mps 737 mmHg 54%
    05:00 +15°C° 0 mm 4 mps 738 mmHg 55%
    06:00 +15°C° 0 mm 4 mps 738 mmHg 57%
    07:00 +15°C° 0 mm 5 mps 739 mmHg 58%
    08:00 +17°C° 0 mm 5 mps 739 mmHg 51%
    09:00 +19°C° 0 mm 5 mps 739 mmHg 45%
    10:00 +21°C° 0 mm 5 mps 740 mmHg 39%
    11:00 +22°C° 0 mm 5 mps 739 mmHg 35%
    12:00 +23°C° 0 mm 6 mps 739 mmHg 32%
    13:00 +24°C° 0 mm 6 mps 739 mmHg 28%
    14:00 +24°C° 0 mm 6 mps 739 mmHg 28%
    15:00 +24°C° 0 mm 6 mps 739 mmHg 27%
    16:00 +24°C° 0 mm 6 mps 739 mmHg 27%
    17:00 +23°C° 0 mm 6 mps 739 mmHg 28%
    18:00 +22°C° 0 mm 6 mps 740 mmHg 30%
    19:00 +21°C° 0 mm 6 mps 740 mmHg 32%
    20:00 +20°C° 0 mm 6 mps 741 mmHg 33%
    21:00 +19°C° 0 mm 5 mps 741 mmHg 35%
    22:00 +19°C° 0 mm 5 mps 741 mmHg 37%
    23:00 +17°C° 0 mm 5 mps 742 mmHg 39%

    26 March, Tuesday

    Time Temperature Precipitation Wind Pressure Humidity
    00:00 +16°C° 0 mm 5 mps 742 mmHg 40%
    01:00 +16°C° 0 mm 5 mps 742 mmHg 42%
    02:00 +15°C° 0 mm 5 mps 742 mmHg 46%
    03:00 +15°C° 0 mm 5 mps 742 mmHg 49%
    04:00 +14°C° 0 mm 5 mps 742 mmHg 53%
    05:00 +14°C° 0 mm 6 mps 742 mmHg 57%
    06:00 +14°C° 0 mm 6 mps 743 mmHg 61%
    07:00 +13°C° 0 mm 6 mps 743 mmHg 65%
    08:00 +15°C° 0 mm 7 mps 744 mmHg 58%
    09:00 +17°C° 0 mm 7 mps 744 mmHg 50%
    10:00 +18°C° 0 mm 7 mps 744 mmHg 43%
    11:00 +20°C° 0 mm 7 mps 743 mmHg 39%
    12:00 +21°C° 0 mm 7 mps 743 mmHg 35%
    13:00 +22°C° 0 mm 7 mps 742 mmHg 31%
    14:00 +22°C° 0 mm 7 mps 742 mmHg 29%
    15:00 +22°C° 0 mm 7 mps 741 mmHg 28%
    16:00 +22°C° 0 mm 7 mps 741 mmHg 26%
    17:00 +21°C° 0 mm 7 mps 741 mmHg 27%
    18:00 +20°C° 0 mm 6 mps 741 mmHg 28%
    19:00 +19°C° 0 mm 6 mps 741 mmHg 29%
    20:00 +17°C° 0 mm 6 mps 741 mmHg 31%
    21:00 +17°C° 0 mm 6 mps 741 mmHg 32%
    22:00 +16°C° 0 mm 7 mps 741 mmHg 34%
    23:00 +16°C° 0 mm 7 mps 741 mmHg 37%

    27 March, Wednesday

    Time Temperature Precipitation Wind Pressure Humidity
    00:00 +15°C° 0 mm 7 mps 741 mmHg 39%
    01:00 +15°C° 0 mm 7 mps 741 mmHg 42%
    02:00 +14°C° 0 mm 7 mps 740 mmHg 46%
    03:00 +12°C° 0 mm 7 mps 740 mmHg 49%
    04:00 +13°C° 0 mm 6 mps 740 mmHg 53%
    05:00 +12°C° 0 mm 7 mps 740 mmHg 50%
    06:00 +14°C° 0 mm 7 mps 740 mmHg 47%
    07:00 +14°C° 0 mm 7 mps 740 mmHg 45%
    08:00 +16°C° 0 mm 8 mps 739 mmHg 41%
    09:00 +18°C° 0 mm 9 mps 739 mmHg 38%
    10:00 +21°C° 0 mm 10 mps 739 mmHg 34%
    11:00 +22°C° 0 mm 10 mps 738 mmHg 35%
    12:00 +23°C° 0 mm 10 mps 737 mmHg 36%
    13:00 +24°C° 0 mm 11 mps 736 mmHg 36%
    14:00 +24°C° 0 mm 10 mps 735 mmHg 36%
    15:00 +26°C° 0 mm 9 mps 735 mmHg 36%
    16:00 +26°C° 0 mm 9 mps 734 mmHg 36%
    17:00 +24°C° 0 mm 8 mps 734 mmHg 40%
    18:00 +23°C° 0 mm 7 mps 734 mmHg 44%
    19:00 +22°C° 0 mm 6 mps 734 mmHg 48%
    20:00 +22°C° 0 mm 6 mps 734 mmHg 50%
    21:00 +22°C° 0 mm 6 mps 734 mmHg 52%
    22:00 +21°C° 0 mm 6 mps 734 mmHg 54%
    23:00 +21°C° 0 mm 6 mps 734 mmHg 56%
    Show more